TimeMDT,TemperatureF,Dew PointF,Humidity,Sea Level PressureIn,VisibilityMPH,Wind Direction,Wind SpeedMPH,Gust SpeedMPH,PrecipitationIn,Events,Conditions,WindDirDegrees,DateUTC
12:18 AM,46.4,30.2,53,30.08,2.0,Calm,Calm,-,N/A,,Haze,0,2013-04-26 06:18:00
12:44 AM,44.6,30.2,57,30.09,1.2,Calm,Calm,-,N/A,,Haze,0,2013-04-26 06:44:00
12:50 AM,44.6,30.2,57,30.09,2.0,Calm,Calm,-,N/A,,Haze,0,2013-04-26 06:50:00
12:53 AM,42.8,30.2,61,30.09,3.0,Calm,Calm,-,N/A,,Haze,0,2013-04-26 06:53:00
1:53 AM,41.0,30.0,65,30.11,8.0,Calm,Calm,-,N/A,,Clear,0,2013-04-26 07:53:00
2:53 AM,41.0,30.0,65,30.12,6.0,Calm,Calm,-,N/A,,Haze,0,2013-04-26 08:53:00
2:59 AM,39.2,30.2,70,30.12,1.8,Calm,Calm,-,N/A,,Haze,0,2013-04-26 08:59:00
3:08 AM,41.0,30.2,65,30.12,3.0,ENE,3.5,-,N/A,,Haze,60,2013-04-26 09:08:00
3:23 AM,39.2,30.2,70,30.12,1.8,Calm,Calm,-,N/A,,Haze,0,2013-04-26 09:23:00
3:33 AM,39.2,30.2,70,30.12,3.0,Calm,Calm,-,N/A,,Haze,0,2013-04-26 09:33:00
3:53 AM,37.9,30.0,73,30.13,3.0,North,3.5,-,N/A,,Haze,10,2013-04-26 09:53:00
4:00 AM,37.4,30.2,75,30.13,2.5,Calm,Calm,-,N/A,,Haze,0,2013-04-26 10:00:00
4:13 AM,39.2,30.2,70,30.14,3.0,Calm,Calm,-,N/A,,Haze,0,2013-04-26 10:13:00
4:53 AM,37.9,28.9,70,30.15,8.0,East,3.5,-,N/A,,Clear,100,2013-04-26 10:53:00
5:53 AM,37.9,28.9,70,30.17,10.0,SE,4.6,-,N/A,,Clear,130,2013-04-26 11:53:00
6:53 AM,37.9,28.9,70,30.19,8.0,Calm,Calm,-,N/A,,Clear,0,2013-04-26 12:53:00
7:53 AM,37.9,33.1,83,30.21,10.0,Calm,Calm,-,N/A,,Clear,0,2013-04-26 13:53:00
8:53 AM,45.0,30.9,58,30.22,10.0,Calm,Calm,-,N/A,,Clear,0,2013-04-26 14:53:00
9:53 AM,48.9,32.0,52,30.21,10.0,Variable,4.6,-,N/A,,Clear,0,2013-04-26 15:53:00
10:53 AM,54.0,32.0,43,30.20,10.0,ESE,4.6,-,N/A,,Clear,120,2013-04-26 16:53:00
11:53 AM,60.1,32.0,35,30.19,10.0,East,3.5,-,N/A,,Clear,90,2013-04-26 17:53:00
12:53 PM,63.0,32.0,31,30.17,10.0,Calm,Calm,-,N/A,,Clear,0,2013-04-26 18:53:00
1:53 PM,66.0,33.1,29,30.14,10.0,Calm,Calm,-,N/A,,Clear,0,2013-04-26 19:53:00
2:53 PM,71.1,32.0,24,30.12,10.0,West,18.4,25.3,N/A,,Partly Cloudy,270,2013-04-26 20:53:00
3:53 PM,72.0,32.0,23,30.12,10.0,NW,13.8,24.2,N/A,,Clear,310,2013-04-26 21:53:00
4:53 PM,71.1,30.9,23,30.12,10.0,NW,13.8,25.3,N/A,,Clear,320,2013-04-26 22:53:00
5:53 PM,71.1,30.9,23,30.12,10.0,WNW,15.0,24.2,N/A,,Clear,290,2013-04-26 23:53:00
6:53 PM,68.0,32.0,26,30.13,10.0,West,13.8,-,N/A,,Clear,280,2013-04-27 00:53:00
7:53 PM,64.9,34.0,32,30.14,10.0,West,10.4,-,N/A,,Clear,280,2013-04-27 01:53:00
8:53 PM,57.9,34.0,41,30.15,10.0,West,6.9,-,N/A,,Clear,260,2013-04-27 02:53:00
9:53 PM,57.0,32.0,39,30.17,10.0,WSW,5.8,-,N/A,,Clear,250,2013-04-27 03:53:00
10:53 PM,48.0,33.1,56,30.18,10.0,West,3.5,-,N/A,,Clear,280,2013-04-27 04:53:00
11:53 PM,50.0,34.0,54,30.15,10.0,Calm,Calm,-,N/A,,Clear,0,2013-04-27 05:53:00